Detroit, MI

7:13 PM EST on November 22, 2017 (GMT -0500)
Detroit City

Weather History for KDET - June, 2013

Change the Weather History Date:

Saturday, June 8, 2013

  Actual Average Record
Temperature  
Mean Temperature 64 °F -  
Max Temperature 70 °F 78 °F 95 °F (2011)
Min Temperature 57 °F 59 °F 39 °F (1949)
Degree Days  
Heating Degree Days 2    
Growing Degree Days 14 (Base 50)    
Moisture  
Dew Point 51 °F    
Average Humidity 68    
Maximum Humidity 78    
Minimum Humidity 51    
Precipitation  
Precipitation 0.00 in - - ()
Sea Level Pressure  
Sea Level Pressure 29.99 in    
Wind  
Wind Speed 3 mph (ENE)    
Max Wind Speed 8 mph    
Max Gust Speed -    
Visibility 10 miles    
Events      
Averages and records for this station are not official NWS values.
T = Trace of Precipitation, MM = Missing Value Source: NWS Daily Summary

Daily Weather History Graph

Daily Weather History Graph

Search for Another Location

Airport or City:

Trip Planner

Search our weather history database for the weather conditions in past years. The results will help you decide how hot, cold, wet, or windy it might be!

Date:

Astronomy

Jun. 08, 2013 Rise Set
Actual Time 5:55 AM EDT 9:07 PM EDT
Civil Twilight 5:20 AM EDT 9:42 PM EDT
Nautical Twilight 4:36 AM EDT 10:26 PM EDT
Astronomical Twilight 3:42 AM EDT 11:20 PM EDT
Moon 6:03 AM EDT (6/8) 9:07 PM EDT (6/8)
Length of Visible Light 16h 21m
Length of Day
15h 12m
New Moon, 0% of the Moon is Illuminated
Jun 8
New Moon
Jun 16
First Quarter
Jun 23
Full
Jun 30
Last Quarter
Jul 8
New

Hourly Weather History & Observations

Time (EDT) Temp. Dew Point Humidity Pressure Visibility Wind Dir Wind Speed Gust Speed Precip Events Conditions
12:53 AM 57.9 °F 48.9 °F 72% 29.91 in 10.0 mi NNW 3.5 mph - N/A   Overcast
1:53 AM 57.9 °F 48.9 °F 72% 29.91 in 10.0 mi Calm Calm - N/A   Overcast
2:18 AM 57.2 °F 48.2 °F 72% 29.91 in 10.0 mi NNW 3.5 mph - N/A   Overcast
2:53 AM 57.9 °F 50.0 °F 75% 29.91 in 10.0 mi Calm Calm - N/A   Overcast
3:53 AM 57.9 °F 51.1 °F 78% 29.91 in 10.0 mi Calm Calm - N/A   Overcast
4:53 AM 57.9 °F 51.1 °F 78% 29.92 in 10.0 mi North 3.5 mph - N/A   Overcast
5:53 AM 57.9 °F 51.1 °F 78% 29.93 in 10.0 mi North 4.6 mph - N/A   Overcast
6:53 AM 57.9 °F 51.1 °F 78% 29.96 in 10.0 mi Calm Calm - N/A   Overcast
7:53 AM 57.9 °F 51.1 °F 78% 29.97 in 10.0 mi Calm Calm - N/A   Overcast
8:53 AM 59.0 °F 51.1 °F 75% 29.98 in 10.0 mi North 3.5 mph - N/A   Overcast
9:53 AM 60.1 °F 52.0 °F 75% 30.00 in 10.0 mi NNE 3.5 mph - N/A   Overcast
10:53 AM 61.0 °F 52.0 °F 72% 30.01 in 10.0 mi NNE 3.5 mph - N/A   Overcast
11:53 AM 62.1 °F 52.0 °F 70% 30.02 in 10.0 mi Calm Calm - N/A   Overcast
12:53 PM 64.0 °F 50.0 °F 60% 30.03 in 10.0 mi Calm Calm - N/A   Overcast
1:53 PM 68.0 °F 52.0 °F 56% 30.00 in 10.0 mi ESE 3.5 mph - N/A   Mostly Cloudy
2:53 PM 68.0 °F 50.0 °F 52% 30.00 in 10.0 mi Variable 3.5 mph - N/A   Mostly Cloudy
3:53 PM 68.0 °F 52.0 °F 56% 30.00 in 10.0 mi Calm Calm - N/A   Mostly Cloudy
4:53 PM 70.0 °F 51.1 °F 51% 30.01 in 10.0 mi SE 6.9 mph - N/A   Mostly Cloudy
5:53 PM 68.0 °F 51.1 °F 55% 30.01 in 10.0 mi ESE 6.9 mph - N/A   Mostly Cloudy
6:53 PM 68.0 °F 51.1 °F 55% 30.02 in 10.0 mi ESE 8.1 mph - N/A   Partly Cloudy
7:53 PM 66.9 °F 51.1 °F 57% 30.04 in 10.0 mi East 5.8 mph - N/A   Scattered Clouds
8:53 PM 64.9 °F 51.1 °F 61% 30.05 in 10.0 mi SE 5.8 mph - N/A   Clear
9:53 PM 62.1 °F 52.0 °F 70% 30.06 in 10.0 mi SE 3.5 mph - N/A   Clear
10:53 PM 63.0 °F 54.0 °F 72% 30.09 in 10.0 mi South 5.8 mph - N/A   Overcast
11:53 PM 62.1 °F 53.1 °F 72% 30.09 in 10.0 mi Calm Calm - N/A   Overcast